Probability
0 0 0 0 0 0 0 0 0 0 0 0 0 0 0 0 0 0 0 0 0 0 0 0 0 0 0 0 0 0 0 0 0 0 0 2 13 36 51 42 31 39 53
0 0 0 0 0 0 0 0 0 0 0 0 0 0 0 0 0 0 0 0 0 0 0 0 0 0 0 0 0 0 0 0 0 0 0 1 8 25 47 50 37 36 46
0 0 0 0 0 0 0 0 0 0 0 0 0 0 0 0 0 0 0 0 0 0 0 0 0 0 0 0 0 0 0 0 0 0 0 0 2 12 35 55 49 36 35
0 0 0 0 0 0 0 0 0 0 0 0 0 0 0 0 0 0 0 0 0 0 0 0 0 0 0 0 0 0 0 0 0 0 0 0 0 4 21 47 59 45 32
0 0 0 0 0 0 0 0 0 0 0 0 0 0 0 0 0 0 0 0 0 0 0 0 0 0 0 0 0 0 0 0 0 0 0 0 0 1 10 35 60 59 46
0 0 0 0 0 0 0 0 0 0 0 0 0 0 0 0 0 0 0 0 0 0 0 0 0 0 0 0 0 0 0 0 0 0 0 0 0 0 5 23 52 67 65
0 0 0 0 0 0 0 0 0 0 0 0 0 0 0 0 0 0 0 0 0 0 0 0 0 0 0 0 0 0 0 0 0 0 0 0 0 0 3 15 40 64 73
0 0 0 0 0 0 0 0 0 0 0 0 0 0 0 0 0 0 0 0 0 0 0 0 0 0 0 0 0 0 0 0 0 0 0 0 0 0 1 7 27 55 71
0 0 0 0 0 0 0 0 0 0 0 0 0 0 0 0 0 0 0 0 0 0 0 0 0 0 0 0 0 0 0 0 0 0 0 0 0 0 0 3 19 47 67
0 0 0 0 0 0 0 0 0 0 0 0 0 0 0 0 0 0 0 0 0 0 0 0 0 0 0 0 0 0 0 0 0 0 0 0 1 1 0 2 15 42 63
0 0 0 0 0 0 0 0 0 0 0 0 0 0 0 0 0 0 0 0 0 0 0 0 0 0 0 0 0 0 0 0 0 0 0 0 2 2 1 1 12 37 57
0 0 0 0 0 0 0 0 0 0 0 0 0 0 0 0 0 0 0 0 0 0 0 0 0 0 0 0 0 0 0 0 0 0 0 0 1 2 1 0 7 28 47
0 0 0 0 0 0 0 0 0 0 0 0 0 0 0 0 0 0 0 0 0 0 0 0 0 0 0 0 0 0 0 0 0 0 0 0 0 1 0 0 3 16 30
0 0 0 0 0 0 0 0 0 0 0 0 0 0 0 0 0 0 0 0 0 0 0 0 0 0 0 0 0 0 0 0 0 0 0 0 0 0 0 0 1 6 13
0 0 0 0 0 0 0 0 0 0 0 0 0 0 0 0 0 0 0 0 0 0 0 0 0 0 0 0 0 0 0 0 0 0 0 0 0 0 0 0 0 1 3
0 0 0 0 0 0 0 0 0 0 0 0 0 0 0 0 0 0 0 0 0 0 0 0 0 0 0 0 0 0 0 0 0 0 0 0 0 0 0 0 0 0 0
0 0 0 0 0 0 0 0 0 0 0 0 0 0 0 0 0 0 0 0 0 0 0 0 0 0 0 0 0 0 0 0 0 0 0 0 0 0 0 0 0 0 0
0 0 0 0 0 0 0 0 0 0 0 0 0 0 0 0 0 0 0 0 0 0 0 0 0 0 0 0 0 0 0 0 0 0 0 0 0 0 0 0 0 0 0
0 0 0 0 0 0 0 0 0 0 0 0 0 0 0 0 0 0 0 0 0 0 0 0 0 0 0 0 0 0 0 0 0 0 0 0 0 0 0 0 0 0 0
0 0 0 0 0 0 0 0 0 0 0 0 0 0 0 0 0 0 0 0 0 0 0 0 0 0 0 0 0 0 0 0 0 0 0 0 0 0 0 0 0 0 0
0 0 0 0 0 0 0 0 0 0 0 0 0 0 0 0 0 0 0 0 0 0 0 0 0 0 0 0 0 0 0 0 0 0 0 0 0 0 0 0 0 0 0
0 0 0 0 0 0 0 0 0 0 0 0 0 0 0 0 0 0 0 0 0 0 0 0 0 0 0 0 0 0 0 0 0 0 0 0 0 0 0 0 0 0 0
0 0 0 0 0 0 0 0 0 0 0 0 0 0 0 0 0 0 0 0 0 0 0 0 0 0 0 0 0 0 0 0 0 0 0 0 0 0 0 0 0 0 0
0 0 0 0 0 0 0 0 0 0 0 0 0 0 0 0 0 0 0 0 0 0 0 0 0 0 0 0 0 0 0 0 0 0 0 0 0 0 0 0 0 0 0
0 0 0 0 0 0 0 0 0 0 0 0 0 0 0 0 0 0 0 0 0 0 0 0 0 0 0 0 0 0 0 0 0 0 0 0 0 0 0 0 0 0 0
0 0 0 0 0 0 0 0 0 0 0 0 0 0 0 0 0 0 0 0 0 0 0 0 0 0 0 0 0 0 0 0 0 0 0 0 0 0 0 0 0 0 0
Wind_Speed
4 5 5 5 6 5 5 6 7 8 9 10 10 13 13 13 13 13 11 26 32 32 33 33 32 31 29 28 27 26 24 24 23 22 22 21 20 19 19 21 23 24 24
4 4 5 5 5 5 5 6 8 8 7 7 9 11 12 13 12 14 13 17 29 33 33 33 32 31 30 28 27 26 25 24 23 22 22 21 20 19 19 20 23 24 25
4 4 5 5 5 5 6 6 8 6 8 9 10 10 11 11 13 15 16 14 15 25 32 33 32 31 30 28 27 26 24 23 22 22 22 21 21 20 19 19 21 24 26
5 4 4 5 6 5 5 6 6 6 7 8 8 9 10 10 13 15 16 16 15 15 21 31 32 31 29 27 25 24 23 22 22 21 21 21 21 21 20 18 20 23 26
4 4 4 5 6 5 5 8 7 6 8 8 9 9 8 9 12 16 18 19 18 18 15 23 30 29 27 25 23 23 23 22 22 21 21 20 20 21 20 19 19 22 26
4 4 5 5 6 5 6 6 8 8 7 8 12 12 10 10 11 12 16 16 16 19 17 16 13 14 21 21 21 21 22 22 22 21 21 21 21 20 20 20 19 20 25
5 5 5 5 5 6 7 8 8 9 8 7 9 12 11 10 11 11 11 12 16 18 15 13 9 7 7 16 18 19 20 21 21 21 21 21 21 21 21 20 19 19 23
5 6 5 5 5 6 8 8 8 8 10 7 8 13 13 12 8 11 10 13 14 12 14 15 11 9 6 5 11 19 20 20 21 21 21 21 22 22 21 21 20 20 22
5 5 6 5 6 6 6 8 8 9 10 10 6 7 10 12 15 10 11 12 11 12 12 11 12 10 9 6 6 13 20 21 20 20 20 21 22 22 22 21 21 21 21
5 6 6 6 6 6 7 8 9 8 9 11 9 7 9 11 12 14 10 8 12 12 12 12 11 11 10 7 10 17 20 20 20 20 20 20 20 21 22 22 22 22 21
5 6 6 5 6 6 7 8 9 8 7 9 9 10 11 10 10 10 14 14 11 10 10 11 10 10 11 9 7 13 20 19 18 18 18 19 20 19 20 21 22 22 21
4 6 6 5 6 6 7 8 8 9 8 9 8 8 10 10 11 10 11 13 13 12 11 10 10 10 10 9 12 18 18 17 17 18 18 19 19 20 19 19 20 21 21
4 6 7 6 6 7 7 7 8 9 9 9 8 8 8 9 10 10 11 12 13 12 10 9 8 8 9 7 8 16 15 16 17 18 19 19 19 19 19 19 19 20 20
5 6 6 7 8 8 9 7 7 8 8 8 10 10 8 8 9 9 9 11 12 10 8 9 8 7 7 7 11 17 9 17 19 19 19 19 19 19 19 19 19 18 18
6 7 7 8 7 7 7 7 6 8 8 7 8 9 8 8 8 8 8 9 9 12 11 8 7 8 8 8 13 9 7 16 20 21 20 20 20 20 20 19 17 17 15
6 7 7 7 7 7 7 7 7 8 8 8 7 8 8 8 8 8 8 8 8 9 11 8 9 10 11 11 16 11 10 21 21 22 22 21 21 21 20 18 16 16 15
6 7 7 8 7 7 7 7 8 9 9 10 9 9 9 10 8 8 9 8 7 7 10 10 8 9 11 10 10 9 10 10 10 20 22 22 21 20 19 18 16 15 14
6 7 7 7 8 8 7 7 9 10 10 11 10 10 10 10 10 9 8 9 8 7 8 13 11 10 11 10 10 11 10 10 9 17 21 22 21 20 19 18 16 14 13
7 7 7 8 8 8 8 8 9 10 11 11 11 10 10 10 10 9 10 9 7 8 7 9 11 9 8 9 10 10 11 9 11 13 18 19 20 21 20 18 17 14 12
7 7 7 8 8 9 9 10 11 11 12 11 11 10 9 10 10 10 9 8 8 8 7 8 9 9 8 8 8 9 10 9 10 11 12 13 16 19 20 19 18 15 13
8 7 7 7 8 9 9 12 11 10 10 10 10 9 9 14 16 14 11 9 8 6 7 9 9 9 8 8 8 8 10 11 11 7 6 7 7 7 9 15 16 15 13
7 7 7 7 10 10 20 25 17 8 8 9 9 8 9 11 15 19 22 21 17 11 9 8 8 9 10 9 9 9 9 10 8 5 7 9 7 7 7 7 12 14 14
8 7 7 8 10 13 23 24 23 12 8 8 8 7 8 9 13 8 14 16 15 19 18 11 9 9 10 9 10 11 9 10 10 9 9 8 6 8 7 8 14 14 14
7 6 7 8 9 13 23 24 23 11 8 8 7 7 7 7 10 13 8 6 7 9 13 9 8 9 10 9 9 10 10 11 12 10 9 7 6 6 6 6 12 15 14
6 6 6 8 8 11 20 24 22 7 7 7 6 7 8 7 16 20 9 7 9 8 13 18 19 17 19 18 13 7 7 8 8 6 4 5 5 5 4 5 8 14 14
6 6 6 7 8 8 17 22 22 6 6 6 6 6 12 14 18 19 8 7 10 9 8 10 12 13 11 12 15 7 6 7 6 6 4 5 4 4 3 3 4 6 8
Wind_Direction
339 335 327 323 321 322 327 325 318 317 318 315 314 317 316 312 308 303 303 302 300 297 294 290 287 284 281 279 277 276 275 274 274 275 278 279 282 274 254 234 214 204 200
339 328 321 317 315 320 320 313 312 312 309 308 311 312 310 306 303 303 302 301 299 295 292 288 285 282 279 276 273 272 271 271 271 271 273 276 277 279 264 244 222 208 201
333 326 313 311 311 314 312 308 305 303 308 312 309 306 304 303 302 301 299 296 293 292 289 286 283 280 276 272 268 267 268 268 269 270 270 273 274 276 272 253 231 213 203
327 320 309 306 306 310 307 304 299 309 306 302 301 301 300 300 301 301 299 295 291 286 284 282 280 278 274 270 267 266 266 267 268 269 270 270 271 271 272 262 240 220 207
318 317 303 297 308 308 303 307 316 305 303 304 302 299 299 301 299 299 297 294 289 283 275 274 273 272 272 270 267 267 266 266 267 268 270 271 272 269 268 265 249 228 212
314 312 296 300 307 303 302 303 303 301 299 301 306 305 297 294 295 293 295 298 299 292 282 272 270 274 275 273 270 267 266 265 266 266 268 270 272 271 267 264 256 236 218
306 298 296 298 301 299 298 300 302 304 302 298 304 304 297 288 287 293 296 304 302 301 300 297 287 278 277 280 283 280 273 267 265 265 265 268 270 270 268 264 259 244 225
294 298 296 295 294 295 297 298 302 300 304 308 304 306 305 305 295 302 299 297 300 307 309 305 300 291 281 272 276 279 279 274 270 267 266 267 268 266 267 264 259 250 232
287 289 289 290 292 294 295 298 299 304 308 307 293 294 300 304 310 299 295 295 300 301 299 298 294 292 286 273 269 276 275 272 269 268 267 266 265 264 263 263 259 252 238
295 295 290 292 293 291 291 298 308 301 304 308 309 290 282 287 298 305 306 296 300 303 308 309 308 302 292 283 273 273 270 268 267 268 268 268 266 264 259 259 258 251 242
294 294 291 296 295 292 291 297 301 300 298 297 305 308 304 296 286 288 300 307 307 303 302 301 299 293 287 277 267 266 267 267 267 270 273 275 275 272 265 259 258 253 244
289 291 297 298 294 291 292 295 298 300 298 299 302 304 305 305 303 294 290 297 302 303 300 297 294 290 284 277 271 275 272 272 273 274 275 277 279 280 277 270 266 257 248
290 290 300 293 290 289 293 297 302 299 298 303 304 304 304 301 301 300 294 293 294 296 297 295 292 295 298 300 293 289 284 281 277 275 275 275 277 279 279 277 273 265 255
280 284 290 289 290 293 301 300 301 299 302 303 308 306 305 305 304 303 303 302 301 298 299 299 307 302 313 309 303 305 298 291 281 276 274 274 276 277 276 276 272 268 263
284 291 292 289 291 294 296 299 295 298 300 300 302 303 306 305 307 305 304 304 305 309 309 306 311 311 311 306 304 302 294 292 286 280 275 273 274 275 273 273 271 265 261
283 288 289 290 292 294 296 297 296 295 299 299 299 301 305 308 308 308 308 308 304 302 303 307 308 306 309 311 307 309 303 296 288 282 275 270 268 268 268 269 268 263 254
285 288 291 293 295 294 293 293 294 295 295 297 298 300 301 305 304 308 306 306 306 307 305 308 306 305 304 304 304 303 296 287 279 278 275 269 264 264 263 264 264 261 251
285 287 290 292 295 297 291 288 290 294 289 289 291 292 295 303 303 303 303 303 303 304 306 310 311 310 306 307 308 308 305 298 288 282 276 270 264 261 258 259 258 256 250
285 286 289 291 291 290 287 282 278 279 279 278 280 282 287 294 296 298 302 301 301 309 306 305 308 309 309 312 317 313 311 304 297 287 280 271 263 258 254 252 252 249 243
285 284 285 287 290 290 285 278 273 272 272 271 272 274 279 283 286 292 302 303 308 310 308 306 306 309 311 317 322 322 318 315 306 296 284 275 267 258 249 245 244 241 234
285 281 282 288 291 290 284 279 273 275 272 273 271 269 276 293 306 312 318 317 317 311 311 309 308 310 314 323 323 321 315 315 303 287 303 290 277 257 242 238 236 229 222
278 278 279 284 289 292 299 306 311 297 288 282 279 274 279 291 301 318 319 322 327 322 314 308 308 308 308 309 310 310 313 314 308 322 332 302 283 263 243 224 218 214 212
278 277 278 279 282 288 303 311 317 323 303 294 287 282 290 298 312 295 305 321 322 321 320 314 303 297 297 297 298 299 298 297 286 295 306 286 268 261 244 227 209 205 204
274 276 278 279 282 292 310 316 323 328 302 295 290 282 282 287 296 306 312 314 301 302 308 307 286 285 286 283 277 281 288 292 285 270 247 261 268 260 250 220 205 199 199
278 279 281 284 288 299 314 320 332 323 314 309 304 303 308 296 308 325 338 319 310 302 317 322 321 316 314 313 308 297 292 295 297 289 265 257 272 270 247 214 197 193 193
278 286 291 290 294 298 316 327 338 331 324 326 321 322 329 326 330 339 340 320 313 315 326 322 320 316 312 306 309 301 285 280 283 286 305 319 295 292 250 198 180 182 187